AirNav   Air Wisconsin pilot careers
 
 1578 users online  

00M Thigpen Field Airport
Bay Springs, Mississippi, USA

GOING TO BAY SPRINGS?


FAA INFORMATION EFFECTIVE 01 FEBRUARY 2018

Location

FAA Identifier: 00M
Lat/Long: 31-57-13.5000N / 089-14-07.2000W
31-57.225000N / 089-14.120000W
31.9537500 / -89.2353333
(estimated)
Elevation: 351 ft. / 107 m (estimated)
Variation: 02E (1985)
From city: 3 miles SE of BAY SPRINGS, MS
Time zone: UTC -6 (UTC -5 during Daylight Saving Time)
Zip code: 39422

Airport Operations

Airport use: Open to the public
Activation date: 07/1965
Control tower: no
ARTCC: MEMPHIS CENTER
FSS: GREENWOOD FLIGHT SERVICE STATION
NOTAMs facility: GWO (NOTAM-D service available)
Attendance: MON-FRI 0700-1700
Wind indicator: lighted
Segmented circle: yes
Lights: SS-SR
Beacon: white-green (lighted land airport)
Operates sunset to sunrise.

Airport Communications

CTAF: 122.9
WX AWOS-3 at LUL (17 nm S): 119.275 (601-425-9792)

Nearby radio navigation aids

VOR radial/distance  VOR name  Freq  Var
LBYr004/32.5EATON VORTAC110.6005E
MEIr216/33.6MERIDIAN VORTAC117.0005E

Airport Services

Parking: tiedowns
Bottled oxygen: NONE
Bulk oxygen: NONE

Runway Information

Runway 16/34

Dimensions: 3000 x 50 ft. / 914 x 15 m
Surface: asphalt, in fair condition
Weight bearing capacity: 
Single wheel: 8.0
Runway edge lights: medium intensity
RUNWAY 16  RUNWAY 34
Latitude: 31-57.458397N31-56.990420N
Longitude: 089-14.213923W089-14.025057W
Elevation: 329.6 ft.358.2 ft.
Gradient: 1.1%1.1%
Traffic pattern: leftleft
Runway heading: 159 magnetic, 161 true339 magnetic, 341 true
Markings: basic, in good conditionbasic, in good condition
Obstructions: 65 ft. tree, 1980 ft. from runway, 250 ft. right of centerline, 27:1 slope to clear165 ft. trees, 4000 ft. from runway, 23:1 slope to clear

Airport Ownership and Management from official FAA records

Ownership: Publicly-owned
Owner: CITY OF BAY SPRINGS
PO BOX 307
BAY SPRINGS, MS 39422
Phone 601-764-4112
Manager: KENDRICK BLAKENEY
PO BOX 307
BAY SPRINGS, MS 39422
Phone 601-764-8482
MGR MAY BE REACHED AFTER HRS AT (601) 764-2572.

Airport Operational Statistics

Aircraft based on the field: 2
Single engine airplanes: 1
Multi engine airplanes: 1
    
Aircraft operations: avg 107/week *
65% transient general aviation
35% local general aviation
* for 12-month period ending 15 March 2017

Additional Remarks

PUBLIC PHONE AT ARPT 601-764-2558.
TREES ON EAST AND WEST SIDES OF RY VIOLATE TRANSITIONAL SFC.

Instrument Procedures

There are no published instrument procedures at 00M.

Some nearby airports with instrument procedures:

KLUL - Hesler-Noble Field Airport (17 nm S)
17M - Magee Municipal Airport (29 nm W)
KPIB - Hattiesburg/Laurel Regional Airport (30 nm S)
KMEI - Key Field Airport (33 nm NE)
M43 - Prentiss-Jefferson Davis County Airport (40 nm SW)
 
Loc | Ops | Rwys | IFR | FBO | Links
Com | Nav | Svcs | Stats | Notes

AirNav Hotels Sweepstakes
 
Area around 00M (Thigpen Field Airport)
 
Road maps at: MapQuest Bing Google
 
Aerial photo
WARNING: Photo may not be current or correct
Aerial photo of 00M (Thigpen Field Airport)
Do you have a better or more recent aerial photo of Thigpen Field Airport that you would like to share? If so, please send us your photo.

 
Sectional chart

 
Airport distance calculator
Flying to Thigpen Field Airport? Find the distance to fly.

From to 00M

Sunrise and sunset
Times for 23-Feb-2018
 Local
(UTC-6)
 Zulu
(UTC)
Morning civil twilight06:0712:07
Sunrise06:3212:32
Sunset17:4923:49
Evening civil twilight18:1300:13

Current date and time
Zulu (UTC)  23-Feb-2018 20:29:16
Local (UTC-6)  23-Feb-2018 14:29:16
 
METAR
KPIB 
30nm S 
231956Z AUTO 10005KT 10SM CLR 23/19 A3023 RMK AO2 SLP236 T02330189
KLUL 
30nm S 
232015Z AUTO 10008KT 10SM SCT032 SCT110 24/18 A3023 RMK AO2 T02350180
KMEI 
34nm NE 
231958Z 19014KT 10SM SCT060 BKN070 25/17 A3024 RMK AO2 SLP237 T02500167
KHBG 
41nm S 
231953Z AUTO 00000KT 8SM -RA SCT037 BKN047 OVC080 23/20 A3023 RMK AO2 RAB27 SLP233 P0001 T02280200
KJAN 
48nm NW 
231954Z 14008KT 6SM -RA BR OVC043 19/19 A3023 RMK AO2 RAB02 SLP234 P0014 T01940189
KNMM 
49nm NE 
231956Z 12006KT 10SM BKN046 BKN060 27/16 A3024 RMK AO2 SLP247 T02670161 CHINO SOUTH VISNO SOUTH $
K0R0 
49nm SW 
232015Z AUTO 00000KT 2 1/2SM RA SCT005 BKN009 OVC029 21/20 A3026 RMK AO2
TAF
KMEI 
34nm NE 
231753Z 2318/2418 17006KT P6SM SCT035 FM232000 17010KT P6SM VCSH OVC035 FM232200 17010KT P6SM VCTS OVC020CB FM240000 15008KT P6SM SHRA OVC020 FM240200 16008KT P6SM VCSH OVC020 FM240600 18015G20KT P6SM OVC007
KHBG 
41nm S 
231753Z 2318/2418 15006KT P6SM VCSH BKN025 FM231900 15007KT P6SM VCTS OVC020CB FM240000 15005KT P6SM VCSH OVC020 FM240500 16005KT 3SM BR OVC007 FM241700 18015G20KT P6SM OVC015
NOTAMs
Click for the latest NOTAMs
NOTAMs are issued by the DoD/FAA and will open in a separate window not controlled by AirNav.

 

 
 

Would you like to see your business listed on this page?

 If your business provides an interesting product or service to pilots, flight crews, aircraft, or users of the Thigpen Field Airport, you should consider listing it here.  To start the listing process, click on the button below
 
Add a business
 

Other Pages about Thigpen Field Airport

Update a link
 
Copyright © AirNav, LLC. All rights reserved. Privacy Policy  Contact